When you browse on this site, cookies collect data to enhance your experience and personalize the content and advertising you see.
Visit our Privacy Policy to learn more. By continuing to use the site, you agree to this use of cookies and data.
EN

Hourly Weather Dunay

Today, 23 September, Wednesday

Time Temperature Precipitation Wind Pressure Humidity
00:00 +13°C° 0 mm 3 mps 750 mmHg 69%
01:00 +14°C° 0 mm 2 mps 750 mmHg 69%
02:00 +13°C° 0 mm 2 mps 750 mmHg 68%
03:00 +13°C° 0 mm 2 mps 750 mmHg 67%
04:00 +12°C° 0 mm 2 mps 750 mmHg 67%
05:00 +12°C° 0 mm 2 mps 750 mmHg 66%
06:00 +13°C° 0 mm 2 mps 750 mmHg 63%
07:00 +14°C° 0 mm 2 mps 750 mmHg 60%
08:00 +14°C° 0 mm 3 mps 750 mmHg 55%
09:00 +17°C° 0 mm 3 mps 750 mmHg 50%
10:00 +19°C° 0 mm 3 mps 750 mmHg 45%
11:00 +21°C° 0 mm 3 mps 750 mmHg 40%
12:00 +22°C° 0 mm 4 mps 750 mmHg 37%
13:00 +23°C° 0 mm 4 mps 750 mmHg 34%
14:00 +25°C° 0 mm 4 mps 749 mmHg 32%
15:00 +22°C° 0 mm 3 mps 749 mmHg 37%
16:00 +21°C° 0 mm 3 mps 748 mmHg 42%
17:00 +20°C° 0 mm 2 mps 748 mmHg 47%
18:00 +18°C° 0 mm 2 mps 748 mmHg 49%
19:00 +17°C° 0 mm 3 mps 748 mmHg 50%
20:00 +14°C° 0 mm 3 mps 749 mmHg 51%
21:00 +13°C° 0 mm 3 mps 748 mmHg 52%
22:00 +13°C° 0 mm 3 mps 748 mmHg 52%
23:00 +13°C° 0 mm 2 mps 748 mmHg 53%

Tomorrow, 24 September, Thursday

Time Temperature Precipitation Wind Pressure Humidity
00:00 +12°C° 0 mm 3 mps 748 mmHg 53%
01:00 +11°C° 0 mm 3 mps 748 mmHg 53%
02:00 +11°C° 0 mm 3 mps 749 mmHg 53%
03:00 +11°C° 0 mm 3 mps 749 mmHg 52%
04:00 +10°C° 0 mm 3 mps 748 mmHg 51%
05:00 +10°C° 0 mm 3 mps 748 mmHg 50%
06:00 +11°C° 0 mm 3 mps 748 mmHg 49%
07:00 +12°C° 0 mm 3 mps 748 mmHg 48%
08:00 +13°C° 0 mm 3 mps 748 mmHg 47%
09:00 +16°C° 0 mm 3 mps 748 mmHg 44%
10:00 +18°C° 0 mm 3 mps 748 mmHg 42%
11:00 +20°C° 0 mm 3 mps 748 mmHg 39%
12:00 +21°C° 0 mm 3 mps 748 mmHg 37%
13:00 +22°C° 0 mm 3 mps 748 mmHg 36%
14:00 +24°C° 0 mm 3 mps 748 mmHg 34%
15:00 +22°C° 0 mm 3 mps 748 mmHg 39%
16:00 +21°C° 0 mm 3 mps 748 mmHg 43%
17:00 +19°C° 0 mm 3 mps 747 mmHg 48%
18:00 +18°C° 0 mm 3 mps 748 mmHg 49%
19:00 +17°C° 0 mm 3 mps 748 mmHg 49%
20:00 +16°C° 0 mm 3 mps 748 mmHg 50%
21:00 +16°C° 0 mm 3 mps 748 mmHg 50%
22:00 +14°C° 0 mm 3 mps 748 mmHg 50%
23:00 +14°C° 0 mm 3 mps 747 mmHg 50%

Day after tomorrow, 25 September, Friday

Time Temperature Precipitation Wind Pressure Humidity
00:00 +14°C° 0 mm 3 mps 747 mmHg 51%
01:00 +13°C° 0 mm 3 mps 747 mmHg 51%
02:00 +13°C° 0 mm 3 mps 747 mmHg 52%
03:00 +14°C° 0 mm 2 mps 747 mmHg 53%
04:00 +13°C° 0 mm 2 mps 747 mmHg 53%
05:00 +13°C° 0 mm 2 mps 746 mmHg 53%
06:00 +13°C° 0 mm 2 mps 746 mmHg 53%
07:00 +13°C° 0 mm 3 mps 746 mmHg 53%
08:00 +14°C° 0 mm 3 mps 746 mmHg 53%
09:00 +17°C° 0 mm 3 mps 746 mmHg 50%
10:00 +19°C° 0 mm 3 mps 746 mmHg 48%
11:00 +21°C° 0 mm 3 mps 746 mmHg 45%
12:00 +22°C° 0 mm 4 mps 746 mmHg 44%
13:00 +23°C° 0 mm 4 mps 746 mmHg 43%
14:00 +25°C° 0 mm 5 mps 745 mmHg 41%
15:00 +23°C° 0 mm 4 mps 745 mmHg 47%
16:00 +22°C° 0 mm 4 mps 745 mmHg 54%
17:00 +21°C° 0 mm 3 mps 744 mmHg 60%
18:00 +20°C° 0 mm 4 mps 744 mmHg 59%
19:00 +19°C° 0 mm 4 mps 744 mmHg 59%
20:00 +18°C° 0 mm 4 mps 744 mmHg 58%
21:00 +18°C° 0 mm 4 mps 744 mmHg 58%
22:00 +18°C° 0 mm 4 mps 744 mmHg 58%
23:00 +17°C° 0 mm 4 mps 744 mmHg 58%

26 September, Saturday

Time Temperature Precipitation Wind Pressure Humidity
00:00 +17°C° 0 mm 4 mps 744 mmHg 60%
01:00 +17°C° 0 mm 4 mps 744 mmHg 62%
02:00 +17°C° 0 mm 4 mps 744 mmHg 64%
03:00 +15°C° 0 mm 4 mps 744 mmHg 65%
04:00 +15°C° 0 mm 4 mps 744 mmHg 65%
05:00 +15°C° 0 mm 4 mps 744 mmHg 65%
06:00 +16°C° 0 mm 5 mps 744 mmHg 63%
07:00 +16°C° 0 mm 5 mps 744 mmHg 61%
08:00 +17°C° 0 mm 5 mps 744 mmHg 60%
09:00 +20°C° 0 mm 5 mps 744 mmHg 56%
10:00 +21°C° 0 mm 6 mps 744 mmHg 53%
11:00 +23°C° 0 mm 6 mps 745 mmHg 50%
12:00 +24°C° 0 mm 6 mps 745 mmHg 47%
13:00 +26°C° 0 mm 7 mps 744 mmHg 43%
14:00 +26°C° 0 mm 7 mps 744 mmHg 40%
15:00 +24°C° 0 mm 6 mps 744 mmHg 44%
16:00 +23°C° 0 mm 6 mps 744 mmHg 47%
17:00 +22°C° 0 mm 5 mps 744 mmHg 50%
18:00 +21°C° 0 mm 5 mps 744 mmHg 49%
19:00 +21°C° 0 mm 6 mps 744 mmHg 48%
20:00 +20°C° 0 mm 6 mps 744 mmHg 47%
21:00 +20°C° 0 mm 6 mps 744 mmHg 46%
22:00 +19°C° 0 mm 6 mps 744 mmHg 46%
23:00 +19°C° 0 mm 6 mps 743 mmHg 45%

27 September, Sunday

Time Temperature Precipitation Wind Pressure Humidity
00:00 +17°C° 0 mm 6 mps 743 mmHg 44%
01:00 +17°C° 0 mm 6 mps 743 mmHg 43%
02:00 +16°C° 0 mm 6 mps 743 mmHg 42%
03:00 +16°C° 0 mm 6 mps 743 mmHg 42%
04:00 +16°C° 0 mm 6 mps 743 mmHg 42%
05:00 +16°C° 0 mm 7 mps 743 mmHg 42%
06:00 +16°C° 0 mm 7 mps 743 mmHg 45%
07:00 +17°C° 0 mm 8 mps 743 mmHg 48%
08:00 +17°C° 0 mm 8 mps 743 mmHg 51%
09:00 +18°C° 0 mm 8 mps 743 mmHg 49%
10:00 +19°C° 0 mm 9 mps 743 mmHg 48%
11:00 +21°C° 0 mm 9 mps 743 mmHg 46%
12:00 +21°C° 0 mm 9 mps 743 mmHg 44%
13:00 +22°C° 0 mm 9 mps 743 mmHg 41%
14:00 +22°C° 0 mm 9 mps 743 mmHg 39%
15:00 +22°C° 0 mm 8 mps 743 mmHg 40%
16:00 +21°C° 0 mm 8 mps 743 mmHg 42%
17:00 +20°C° 0 mm 7 mps 743 mmHg 44%
18:00 +20°C° 0 mm 7 mps 742 mmHg 44%
19:00 +18°C° 0 mm 7 mps 742 mmHg 44%
20:00 +18°C° 0 mm 7 mps 742 mmHg 44%
21:00 +17°C° 0.2 mm 7 mps 742 mmHg 53%
22:00 +17°C° 0.2 mm 7 mps 742 mmHg 62%
23:00 +16°C° 0.2 mm 6 mps 742 mmHg 71%

28 September, Monday

Time Temperature Precipitation Wind Pressure Humidity
00:00 +15°C° 0.9 mm 6 mps 742 mmHg 78%
01:00 +15°C° 0.9 mm 6 mps 742 mmHg 84%
02:00 +14°C° 0.9 mm 5 mps 742 mmHg 91%
03:00 +14°C° 0.4 mm 5 mps 742 mmHg 91%
04:00 +14°C° 0.4 mm 5 mps 743 mmHg 92%
05:00 +14°C° 0.4 mm 6 mps 743 mmHg 93%
06:00 +14°C° 0.1 mm 5 mps 744 mmHg 91%
07:00 +13°C° 0.1 mm 4 mps 744 mmHg 89%
08:00 +13°C° 0.1 mm 4 mps 745 mmHg 88%
09:00 +13°C° 0 mm 4 mps 745 mmHg 83%
10:00 +14°C° 0 mm 4 mps 746 mmHg 79%
11:00 +14°C° 0 mm 4 mps 746 mmHg 75%
12:00 +15°C° 0 mm 4 mps 746 mmHg 72%
13:00 +16°C° 0 mm 3 mps 747 mmHg 69%
14:00 +17°C° 0 mm 3 mps 747 mmHg 66%
15:00 +16°C° 0 mm 3 mps 747 mmHg 68%
16:00 +16°C° 0 mm 3 mps 747 mmHg 69%
17:00 +16°C° 0 mm 2 mps 747 mmHg 71%
18:00 +14°C° 0 mm 3 mps 747 mmHg 73%
19:00 +13°C° 0 mm 3 mps 748 mmHg 76%
20:00 +12°C° 0 mm 3 mps 748 mmHg 79%
21:00 +12°C° 0 mm 4 mps 748 mmHg 76%
22:00 +13°C° 0 mm 4 mps 748 mmHg 73%
23:00 +13°C° 0 mm 5 mps 747 mmHg 70%
Show more